owner,sensor,date,latitude,longitude,vertical_datum,wind_speed,wind_to_direction,wind_speed_of_gust,qcFlag 
TCOON,ioos:station:TCOON:009:1,2008-05-01T00:00:00Z,27.8398,-97.0727,0.0,5.6,143.0,10.2,'11111222,11111222,11111222' 
TCOON,ioos:station:TCOON:009:1,2008-05-01T01:00:00Z,27.8398,-97.0727,0.0,7.4,146.0,10.6,'11111222,11111222,11111222' 
TCOON,ioos:station:TCOON:009:1,2008-05-01T05:00:00Z,27.8398,-97.0727,0.0,7.2,160.0,11.9,'11111222,11111222,11111222' 
TCOON,ioos:station:TCOON:009:1,2008-05-01T06:00:00Z,27.8398,-97.0727,0.0,6.2,166.0,10.1,'11111222,11111222,11111222' 
TCOON,ioos:station:TCOON:009:1,2008-05-01T07:00:00Z,27.8398,-97.0727,0.0,6.8,170.0,12.9,'11111222,11111222,11111222' 
TCOON,ioos:station:TCOON:009:1,2008-05-01T08:00:00Z,27.8398,-97.0727,0.0,5.2,161.0,9.3,'11111222,11111222,11111222' 
TCOON,ioos:station:TCOON:009:1,2008-05-01T09:00:00Z,27.8398,-97.0727,0.0,5.7,167.0,10.3,'11111222,11111222,11111222' 
TCOON,ioos:station:TCOON:009:1,2008-05-01T10:00:00Z,27.8398,-97.0727,0.0,4.4,165.0,7.6,'11111222,11111222,11111222' 
TCOON,ioos:station:TCOON:009:1,2008-05-01T12:00:00Z,27.8398,-97.0727,0.0,3.7,160.0,6.5,'11111222,11111222,11111222' 
TCOON,ioos:station:TCOON:009:1,2008-05-01T13:00:00Z,27.8398,-97.0727,0.0,3.3,164.0,6.0,'11111222,11111222,11111222' 
TCOON,ioos:station:TCOON:009:1,2008-05-01T14:00:00Z,27.8398,-97.0727,0.0,4.6,161.0,8.4,'11111222,11111222,11111222' 
TCOON,ioos:station:TCOON:009:1,2008-05-01T15:00:00Z,27.8398,-97.0727,0.0,4.3,158.0,7.3,'11111222,11111222,11111222' 
TCOON,ioos:station:TCOON:009:1,2008-05-01T16:00:00Z,27.8398,-97.0727,0.0,4.8,163.0,8.9,'11111222,11111222,11111222' 
TCOON,ioos:station:TCOON:009:1,2008-05-01T17:00:00Z,27.8398,-97.0727,0.0,5.3,154.0,9.6,'11111222,11111222,11111222' 
TCOON,ioos:station:TCOON:009:1,2008-05-01T18:00:00Z,27.8398,-97.0727,0.0,4.4,164.0,7.7,'11111222,11111222,11111222' 
TCOON,ioos:station:TCOON:009:1,2008-05-01T19:00:00Z,27.8398,-97.0727,0.0,7.4,159.0,11.4,'11111222,11111222,11111222' 
TCOON,ioos:station:TCOON:009:1,2008-05-01T20:00:00Z,27.8398,-97.0727,0.0,5.9,155.0,10.6,'11111222,11111222,11111222' 
TCOON,ioos:station:TCOON:009:1,2008-05-01T21:00:00Z,27.8398,-97.0727,0.0,4.2,148.0,9.0,'11111222,11111222,11111222' 
TCOON,ioos:station:TCOON:009:1,2008-05-01T22:00:00Z,27.8398,-97.0727,0.0,6.1,145.0,9.3,'11111222,11111222,11111222' 
TCOON,ioos:station:TCOON:009:1,2008-05-01T23:00:00Z,27.8398,-97.0727,0.0,5.8,145.0,9.2,'11111222,11111222,11111222' 
TCOON,ioos:station:TCOON:009:1,2008-05-02T00:00:00Z,27.8398,-97.0727,0.0,8.1,149.0,12.5,'11111222,11111222,11111222' 
TCOON,ioos:station:TCOON:009:1,2008-05-02T01:00:00Z,27.8398,-97.0727,0.0,7.0,155.0,10.9,'11111222,11111222,11111222' 
TCOON,ioos:station:TCOON:009:1,2008-05-02T02:00:00Z,27.8398,-97.0727,0.0,7.1,154.0,10.1,'11111222,11111222,11111222' 
TCOON,ioos:station:TCOON:009:1,2008-05-02T03:00:00Z,27.8398,-97.0727,0.0,6.7,150.0,10.6,'11111222,11111222,11111222' 
TCOON,ioos:station:TCOON:009:1,2008-05-02T04:00:00Z,27.8398,-97.0727,0.0,6.5,155.0,9.7,'11111222,11111222,11111222' 
TCOON,ioos:station:TCOON:009:1,2008-05-02T05:00:00Z,27.8398,-97.0727,0.0,4.2,157.0,7.6,'11111222,11111222,11111222' 
TCOON,ioos:station:TCOON:009:1,2008-05-02T06:00:00Z,27.8398,-97.0727,0.0,5.9,160.0,9.8,'11111222,11111222,11111222' 
TCOON,ioos:station:TCOON:009:1,2008-05-02T07:00:00Z,27.8398,-97.0727,0.0,4.7,161.0,8.3,'11111222,11111222,11111222' 
TCOON,ioos:station:TCOON:009:1,2008-05-02T08:00:00Z,27.8398,-97.0727,0.0,5.7,165.0,9.9,'11111222,11111222,11111222' 
TCOON,ioos:station:TCOON:009:1,2008-05-02T09:00:00Z,27.8398,-97.0727,0.0,5.9,163.0,28.6,'11111222,11111222,11111222' 
TCOON,ioos:station:TCOON:009:1,2008-05-02T10:00:00Z,27.8398,-97.0727,0.0,3.9,165.0,6.0,'11111222,11111222,11111222' 
TCOON,ioos:station:TCOON:009:1,2008-05-02T11:00:00Z,27.8398,-97.0727,0.0,5.2,166.0,8.0,'11111222,11111222,11111222' 
TCOON,ioos:station:TCOON:009:1,2008-05-02T12:00:00Z,27.8398,-97.0727,0.0,5.6,157.0,8.6,'11111222,11111222,11111222' 
TCOON,ioos:station:TCOON:009:1,2008-05-02T13:00:00Z,27.8398,-97.0727,0.0,5.4,156.0,8.2,'11111222,11111222,11111222' 
TCOON,ioos:station:TCOON:009:1,2008-05-02T14:00:00Z,27.8398,-97.0727,0.0,5.8,164.0,9.9,'11111222,11111222,11111222' 
TCOON,ioos:station:TCOON:009:1,2008-05-02T15:00:00Z,27.8398,-97.0727,0.0,5.6,181.0,8.1,'11111222,11111222,11111222' 
TCOON,ioos:station:TCOON:009:1,2008-05-02T16:00:00Z,27.8398,-97.0727,0.0,5.1,179.0,8.1,'11111222,11111222,11111222' 
TCOON,ioos:station:TCOON:009:1,2008-05-02T17:00:00Z,27.8398,-97.0727,0.0,3.8,168.0,7.1,'11111222,11111222,11111222' 
TCOON,ioos:station:TCOON:009:1,2008-05-02T18:00:00Z,27.8398,-97.0727,0.0,4.4,160.0,6.8,'11111222,11111222,11111222' 
TCOON,ioos:station:TCOON:009:1,2008-05-02T19:00:00Z,27.8398,-97.0727,0.0,4.4,162.0,5.7,'11111222,11111222,11111222' 
TCOON,ioos:station:TCOON:009:1,2008-05-02T20:00:00Z,27.8398,-97.0727,0.0,3.8,149.0,6.1,'11111222,11111222,11111222' 
TCOON,ioos:station:TCOON:009:1,2008-05-02T21:00:00Z,27.8398,-97.0727,0.0,3.6,144.0,5.6,'11111222,11111222,11111222' 
TCOON,ioos:station:TCOON:009:1,2008-05-02T22:00:00Z,27.8398,-97.0727,0.0,3.6,130.0,5.0,'11111222,11111222,11111222' 
TCOON,ioos:station:TCOON:009:1,2008-05-02T23:00:00Z,27.8398,-97.0727,0.0,3.9,126.0,5.8,'11111222,11111222,11111222' 
TCOON,ioos:station:TCOON:009:1,2008-05-03T00:00:00Z,27.8398,-97.0727,0.0,3.9,132.0,5.3,'11111222,11111222,11111222' 
TCOON,ioos:station:TCOON:009:1,2008-05-03T01:00:00Z,27.8398,-97.0727,0.0,3.0,122.0,4.3,'11111222,11111222,11111222' 
TCOON,ioos:station:TCOON:009:1,2008-05-03T02:00:00Z,27.8398,-97.0727,0.0,3.3,126.0,4.0,'11111222,11111222,11111222' 
TCOON,ioos:station:TCOON:009:1,2008-05-03T03:00:00Z,27.8398,-97.0727,0.0,3.3,132.0,4.2,'11111222,11111222,11111222' 
TCOON,ioos:station:TCOON:009:1,2008-05-03T04:00:00Z,27.8398,-97.0727,0.0,2.8,138.0,3.9,'11111222,11111222,11111222' 
TCOON,ioos:station:TCOON:009:1,2008-05-03T05:00:00Z,27.8398,-97.0727,0.0,2.3,141.0,3.1,'11111222,11111222,11111222' 
TCOON,ioos:station:TCOON:009:1,2008-05-03T06:00:00Z,27.8398,-97.0727,0.0,2.3,149.0,4.3,'11111222,11111222,11111222' 
TCOON,ioos:station:TCOON:009:1,2008-05-03T07:00:00Z,27.8398,-97.0727,0.0,1.9,166.0,2.8,'11111222,11111222,11111222' 
TCOON,ioos:station:TCOON:009:1,2008-05-03T08:00:00Z,27.8398,-97.0727,0.0,2.6,181.0,4.6,'11111222,11111222,11111222' 
TCOON,ioos:station:TCOON:009:1,2008-05-03T09:00:00Z,27.8398,-97.0727,0.0,0.0,234.0,0.3,'11111222,11111222,11111222' 
TCOON,ioos:station:TCOON:009:1,2008-05-03T10:00:00Z,27.8398,-97.0727,0.0,0.8,82.0,1.1,'11111222,11111222,11111222' 
TCOON,ioos:station:TCOON:009:1,2008-05-03T11:00:00Z,27.8398,-97.0727,0.0,1.3,85.0,1.6,'11111222,11111222,11111222' 
TCOON,ioos:station:TCOON:009:1,2008-05-03T12:00:00Z,27.8398,-97.0727,0.0,2.4,25.0,3.0,'11111222,11111222,11111222' 
TCOON,ioos:station:TCOON:009:1,2008-05-03T13:00:00Z,27.8398,-97.0727,0.0,2.6,43.0,3.3,'11111222,11111222,11111222' 
TCOON,ioos:station:TCOON:009:1,2008-05-03T14:00:00Z,27.8398,-97.0727,0.0,5.3,31.0,6.7,'11111222,11111222,11111222' 
TCOON,ioos:station:TCOON:009:1,2008-05-03T15:00:00Z,27.8398,-97.0727,0.0,6.2,25.0,7.4,'11111222,11111222,11111222' 
TCOON,ioos:station:TCOON:009:1,2008-05-03T16:00:00Z,27.8398,-97.0727,0.0,5.5,50.0,6.7,'11111222,11111222,11111222' 
TCOON,ioos:station:TCOON:009:1,2008-05-03T17:00:00Z,27.8398,-97.0727,0.0,7.2,33.0,9.2,'11111222,11111222,11111222' 
TCOON,ioos:station:TCOON:009:1,2008-05-03T18:00:00Z,27.8398,-97.0727,0.0,9.6,30.0,12.1,'11111222,11111222,11111222' 
TCOON,ioos:station:TCOON:009:1,2008-05-03T19:00:00Z,27.8398,-97.0727,0.0,9.6,27.0,12.1,'11111222,11111222,11111222' 
TCOON,ioos:station:TCOON:009:1,2008-05-03T20:00:00Z,27.8398,-97.0727,0.0,7.8,32.0,10.5,'11111222,11111222,11111222' 
TCOON,ioos:station:TCOON:009:1,2008-05-03T21:00:00Z,27.8398,-97.0727,0.0,7.3,33.0,10.3,'11111222,11111222,11111222' 
TCOON,ioos:station:TCOON:009:1,2008-05-03T22:00:00Z,27.8398,-97.0727,0.0,7.6,42.0,10.0,'11111222,11111222,11111222' 
TCOON,ioos:station:TCOON:009:1,2008-05-03T23:00:00Z,27.8398,-97.0727,0.0,8.6,47.0,99.0,'11111222,11111222,11144222' 
TCOON,ioos:station:TCOON:009:1,2008-05-04T00:00:00Z,27.8398,-97.0727,0.0,6.7,41.0,8.6,'11111222,11111222,11111222' 
TCOON,ioos:station:TCOON:009:1,2008-05-04T01:00:00Z,27.8398,-97.0727,0.0,6.3,42.0,8.1,'11111222,11111222,11111222' 
TCOON,ioos:station:TCOON:009:1,2008-05-04T02:00:00Z,27.8398,-97.0727,0.0,6.5,42.0,7.6,'11111222,11111222,11111222' 
TCOON,ioos:station:TCOON:009:1,2008-05-04T03:00:00Z,27.8398,-97.0727,0.0,5.5,52.0,6.8,'11111222,11111222,11111222' 
TCOON,ioos:station:TCOON:009:1,2008-05-04T04:00:00Z,27.8398,-97.0727,0.0,4.2,32.0,5.3,'11111222,11111222,11111222' 
TCOON,ioos:station:TCOON:009:1,2008-05-04T05:00:00Z,27.8398,-97.0727,0.0,5.2,38.0,6.4,'11111222,11111222,11111222' 
TCOON,ioos:station:TCOON:009:1,2008-05-04T06:00:00Z,27.8398,-97.0727,0.0,5.8,31.0,6.9,'11111222,11111222,11111222' 
TCOON,ioos:station:TCOON:009:1,2008-05-04T07:00:00Z,27.8398,-97.0727,0.0,5.3,34.0,6.6,'11111222,11111222,11111222' 
TCOON,ioos:station:TCOON:009:1,2008-05-04T08:00:00Z,27.8398,-97.0727,0.0,5.4,37.0,6.6,'11111222,11111222,11111222' 
TCOON,ioos:station:TCOON:009:1,2008-05-04T09:00:00Z,27.8398,-97.0727,0.0,6.4,43.0,7.7,'11111222,11111222,11111222' 
TCOON,ioos:station:TCOON:009:1,2008-05-04T10:00:00Z,27.8398,-97.0727,0.0,5.9,43.0,7.6,'11111222,11111222,11111222' 
TCOON,ioos:station:TCOON:009:1,2008-05-04T11:00:00Z,27.8398,-97.0727,0.0,5.2,40.0,6.8,'11111222,11111222,11111222' 
TCOON,ioos:station:TCOON:009:1,2008-05-04T12:00:00Z,27.8398,-97.0727,0.0,5.6,30.0,7.4,'11111222,11111222,11111222' 
TCOON,ioos:station:TCOON:009:1,2008-05-04T13:00:00Z,27.8398,-97.0727,0.0,5.2,35.0,6.7,'11111222,11111222,11111222' 
TCOON,ioos:station:TCOON:009:1,2008-05-04T14:00:00Z,27.8398,-97.0727,0.0,5.0,16.0,6.3,'11111222,11111222,11111222' 
TCOON,ioos:station:TCOON:009:1,2008-05-04T15:00:00Z,27.8398,-97.0727,0.0,7.2,38.0,9.1,'11111222,11111222,11111222' 
TCOON,ioos:station:TCOON:009:1,2008-05-04T16:00:00Z,27.8398,-97.0727,0.0,9.4,56.0,11.1,'11111222,11111222,11111222' 
TCOON,ioos:station:TCOON:009:1,2008-05-04T17:00:00Z,27.8398,-97.0727,0.0,9.5,66.0,10.7,'11111222,11111222,11111222' 
TCOON,ioos:station:TCOON:009:1,2008-05-04T18:00:00Z,27.8398,-97.0727,0.0,9.6,73.0,11.1,'11111222,11111222,11111222' 
TCOON,ioos:station:TCOON:009:1,2008-05-04T19:00:00Z,27.8398,-97.0727,0.0,8.4,83.0,10.6,'11111222,11111222,11111222' 
TCOON,ioos:station:TCOON:009:1,2008-05-04T20:00:00Z,27.8398,-97.0727,0.0,8.3,87.0,10.3,'11111222,11111222,11111222' 
TCOON,ioos:station:TCOON:009:1,2008-05-04T21:00:00Z,27.8398,-97.0727,0.0,10.2,82.0,12.6,'11111222,11111222,11111222' 
TCOON,ioos:station:TCOON:009:1,2008-05-04T22:00:00Z,27.8398,-97.0727,0.0,8.9,86.0,11.3,'11111222,11111222,11111222' 
TCOON,ioos:station:TCOON:009:1,2008-05-04T23:00:00Z,27.8398,-97.0727,0.0,9.0,88.0,10.9,'11111222,11111222,11111222' 
TCOON,ioos:station:TCOON:009:1,2008-05-05T00:00:00Z,27.8398,-97.0727,0.0,8.5,84.0,28.6,'11111222,11111222,11111222' 
TCOON,ioos:station:TCOON:009:1,2008-05-05T01:00:00Z,27.8398,-97.0727,0.0,7.6,84.0,10.7,'11111222,11111222,11111222' 
TCOON,ioos:station:TCOON:009:1,2008-05-05T02:00:00Z,27.8398,-97.0727,0.0,8.8,78.0,10.2,'11111222,11111222,11111222' 
TCOON,ioos:station:TCOON:009:1,2008-05-05T03:00:00Z,27.8398,-97.0727,0.0,6.6,87.0,8.3,'11111222,11111222,11111222' 
TCOON,ioos:station:TCOON:009:1,2008-05-05T04:00:00Z,27.8398,-97.0727,0.0,4.6,95.0,5.8,'11111222,11111222,11111222' 
TCOON,ioos:station:TCOON:009:1,2008-05-05T05:00:00Z,27.8398,-97.0727,0.0,3.5,110.0,5.3,'11111222,11111222,11111222' 
TCOON,ioos:station:TCOON:009:1,2008-05-05T06:00:00Z,27.8398,-97.0727,0.0,2.8,120.0,3.8,'11111222,11111222,11111222' 
TCOON,ioos:station:TCOON:009:1,2008-05-05T07:00:00Z,27.8398,-97.0727,0.0,2.3,116.0,3.3,'11111222,11111222,11111222' 
TCOON,ioos:station:TCOON:009:1,2008-05-05T08:00:00Z,27.8398,-97.0727,0.0,4.0,120.0,5.5,'11111222,11111222,11111222' 
TCOON,ioos:station:TCOON:009:1,2008-05-05T09:00:00Z,27.8398,-97.0727,0.0,3.9,113.0,6.1,'11111222,11111222,11111222' 
TCOON,ioos:station:TCOON:009:1,2008-05-05T10:00:00Z,27.8398,-97.0727,0.0,3.5,107.0,5.1,'11111222,11111222,11111222' 
TCOON,ioos:station:TCOON:009:1,2008-05-05T11:00:00Z,27.8398,-97.0727,0.0,5.4,134.0,8.0,'11111222,11111222,11111222' 
TCOON,ioos:station:TCOON:009:1,2008-05-05T12:00:00Z,27.8398,-97.0727,0.0,3.1,150.0,4.9,'11111222,11111222,11111222' 
TCOON,ioos:station:TCOON:009:1,2008-05-05T13:00:00Z,27.8398,-97.0727,0.0,2.8,155.0,5.7,'11111222,11111222,11111222' 
TCOON,ioos:station:TCOON:009:1,2008-05-05T14:00:00Z,27.8398,-97.0727,0.0,2.5,146.0,4.4,'11111222,11111222,11111222' 
TCOON,ioos:station:TCOON:009:1,2008-05-05T15:00:00Z,27.8398,-97.0727,0.0,0.8,185.0,1.3,'11111222,11111222,11111222' 
TCOON,ioos:station:TCOON:009:1,2008-05-05T16:00:00Z,27.8398,-97.0727,0.0,1.5,180.0,1.9,'11111222,11111222,11111222' 
TCOON,ioos:station:TCOON:009:1,2008-05-05T17:00:00Z,27.8398,-97.0727,0.0,7.4,137.0,12.6,'11111222,11111222,11111222' 
TCOON,ioos:station:TCOON:009:1,2008-05-05T18:00:00Z,27.8398,-97.0727,0.0,4.5,153.0,8.0,'11111222,11111222,11111222' 
TCOON,ioos:station:TCOON:009:1,2008-05-05T20:00:00Z,27.8398,-97.0727,0.0,4.4,122.0,5.6,'11111222,11111222,11111222' 
TCOON,ioos:station:TCOON:009:1,2008-05-05T21:00:00Z,27.8398,-97.0727,0.0,5.0,85.0,6.3,'11111222,11111222,11111222' 
TCOON,ioos:station:TCOON:009:1,2008-05-05T22:00:00Z,27.8398,-97.0727,0.0,6.5,90.0,8.1,'11111222,11111222,11111222' 
TCOON,ioos:station:TCOON:009:1,2008-05-05T23:00:00Z,27.8398,-97.0727,0.0,7.6,91.0,9.4,'11111222,11111222,11111222' 
TCOON,ioos:station:TCOON:009:1,2008-05-06T00:00:00Z,27.8398,-97.0727,0.0,6.4,91.0,8.6,'11111222,11111222,11111222' 
TCOON,ioos:station:TCOON:009:1,2008-05-06T01:00:00Z,27.8398,-97.0727,0.0,6.9,99.0,9.0,'11111222,11111222,11111222' 
TCOON,ioos:station:TCOON:009:1,2008-05-06T02:00:00Z,27.8398,-97.0727,0.0,7.2,100.0,9.5,'11111222,11111222,11111222' 
TCOON,ioos:station:TCOON:009:1,2008-05-06T03:00:00Z,27.8398,-97.0727,0.0,5.8,104.0,7.9,'11111222,11111222,11111222' 
TCOON,ioos:station:TCOON:009:1,2008-05-06T04:00:00Z,27.8398,-97.0727,0.0,4.3,114.0,7.0,'11111222,11111222,11111222' 
TCOON,ioos:station:TCOON:009:1,2008-05-06T05:00:00Z,27.8398,-97.0727,0.0,5.3,117.0,7.2,'11111222,11111222,11111222' 
TCOON,ioos:station:TCOON:009:1,2008-05-06T06:00:00Z,27.8398,-97.0727,0.0,4.6,133.0,6.9,'11111222,11111222,11111222' 
TCOON,ioos:station:TCOON:009:1,2008-05-06T07:00:00Z,27.8398,-97.0727,0.0,3.6,137.0,5.6,'11111222,11111222,11111222' 
TCOON,ioos:station:TCOON:009:1,2008-05-06T08:00:00Z,27.8398,-97.0727,0.0,3.1,143.0,6.0,'11111222,11111222,11111222' 
TCOON,ioos:station:TCOON:009:1,2008-05-06T09:00:00Z,27.8398,-97.0727,0.0,3.6,154.0,5.2,'11111222,11111222,11111222' 
TCOON,ioos:station:TCOON:009:1,2008-05-06T10:00:00Z,27.8398,-97.0727,0.0,2.4,154.0,4.7,'11111222,11111222,11111222' 
TCOON,ioos:station:TCOON:009:1,2008-05-06T11:00:00Z,27.8398,-97.0727,0.0,3.7,161.0,5.2,'11111222,11111222,11111222' 
TCOON,ioos:station:TCOON:009:1,2008-05-06T12:00:00Z,27.8398,-97.0727,0.0,5.2,154.0,8.4,'11111222,11111222,11111222' 
TCOON,ioos:station:TCOON:009:1,2008-05-06T13:00:00Z,27.8398,-97.0727,0.0,2.1,182.0,3.8,'11111222,11111222,11111222' 
TCOON,ioos:station:TCOON:009:1,2008-05-06T14:00:00Z,27.8398,-97.0727,0.0,3.5,180.0,5.2,'11111222,11111222,11111222' 
TCOON,ioos:station:TCOON:009:1,2008-05-06T15:00:00Z,27.8398,-97.0727,0.0,2.7,179.0,4.4,'11111222,11111222,11111222' 
TCOON,ioos:station:TCOON:009:1,2008-05-06T16:00:00Z,27.8398,-97.0727,0.0,4.3,201.0,6.4,'11111222,11111222,11111222' 
TCOON,ioos:station:TCOON:009:1,2008-05-06T17:00:00Z,27.8398,-97.0727,0.0,2.9,173.0,5.4,'11111222,11111222,11111222' 
TCOON,ioos:station:TCOON:009:1,2008-05-06T18:00:00Z,27.8398,-97.0727,0.0,3.4,176.0,99.0,'11111222,11111222,11144222' 
TCOON,ioos:station:TCOON:009:1,2008-05-06T19:00:00Z,27.8398,-97.0727,0.0,5.0,155.0,8.9,'11111222,11111222,11111222' 
TCOON,ioos:station:TCOON:009:1,2008-05-06T20:00:00Z,27.8398,-97.0727,0.0,6.2,151.0,10.3,'11111222,11111222,11111222' 
TCOON,ioos:station:TCOON:009:1,2008-05-06T21:00:00Z,27.8398,-97.0727,0.0,6.2,151.0,10.2,'11111222,11111222,11111222' 
TCOON,ioos:station:TCOON:009:1,2008-05-06T22:00:00Z,27.8398,-97.0727,0.0,4.4,148.0,9.7,'11111222,11111222,11111222' 
TCOON,ioos:station:TCOON:009:1,2008-05-06T23:00:00Z,27.8398,-97.0727,0.0,7.1,136.0,11.4,'11111222,11111222,11111222' 
TCOON,ioos:station:TCOON:009:1,2008-05-07T00:00:00Z,27.8398,-97.0727,0.0,5.8,142.0,9.0,'11111222,11111222,11111222' 
TCOON,ioos:station:TCOON:009:1,2008-05-07T01:00:00Z,27.8398,-97.0727,0.0,6.3,143.0,9.6,'11111222,11111222,11111222' 
TCOON,ioos:station:TCOON:009:1,2008-05-07T02:00:00Z,27.8398,-97.0727,0.0,7.7,144.0,11.8,'11111222,11111222,11111222' 
TCOON,ioos:station:TCOON:009:1,2008-05-07T03:00:00Z,27.8398,-97.0727,0.0,6.7,148.0,10.8,'11111222,11111222,11111222' 
TCOON,ioos:station:TCOON:009:1,2008-05-07T04:00:00Z,27.8398,-97.0727,0.0,5.9,154.0,10.6,'11111222,11111222,11111222' 
TCOON,ioos:station:TCOON:009:1,2008-05-07T05:00:00Z,27.8398,-97.0727,0.0,4.4,159.0,8.8,'11111222,11111222,11111222' 
TCOON,ioos:station:TCOON:009:1,2008-05-07T06:00:00Z,27.8398,-97.0727,0.0,7.4,162.0,12.9,'11111222,11111222,11111222' 
TCOON,ioos:station:TCOON:009:1,2008-05-07T07:00:00Z,27.8398,-97.0727,0.0,5.5,166.0,10.8,'11111222,11111222,11111222' 
TCOON,ioos:station:TCOON:009:1,2008-05-07T08:00:00Z,27.8398,-97.0727,0.0,5.2,167.0,9.7,'11111222,11111222,11111222' 
TCOON,ioos:station:TCOON:009:1,2008-05-07T09:00:00Z,27.8398,-97.0727,0.0,5.3,168.0,9.5,'11111222,11111222,11111222' 
TCOON,ioos:station:TCOON:009:1,2008-05-07T10:00:00Z,27.8398,-97.0727,0.0,5.1,165.0,9.0,'11111222,11111222,11111222' 
TCOON,ioos:station:TCOON:009:1,2008-05-07T11:00:00Z,27.8398,-97.0727,0.0,5.8,169.0,10.1,'11111222,11111222,11111222' 
TCOON,ioos:station:TCOON:009:1,2008-05-07T12:00:00Z,27.8398,-97.0727,0.0,4.4,165.0,7.6,'11111222,11111222,11111222' 
TCOON,ioos:station:TCOON:009:1,2008-05-07T13:00:00Z,27.8398,-97.0727,0.0,5.0,166.0,7.9,'11111222,11111222,11111222' 
TCOON,ioos:station:TCOON:009:1,2008-05-07T14:00:00Z,27.8398,-97.0727,0.0,6.5,171.0,9.2,'11111222,11111222,11111222' 
TCOON,ioos:station:TCOON:009:1,2008-05-07T15:00:00Z,27.8398,-97.0727,0.0,7.3,176.0,11.4,'11111222,11111222,11111222' 
TCOON,ioos:station:TCOON:009:1,2008-05-07T16:00:00Z,27.8398,-97.0727,0.0,7.8,163.0,13.3,'11111222,11111222,11111222' 
TCOON,ioos:station:TCOON:009:1,2008-05-07T17:00:00Z,27.8398,-97.0727,0.0,6.2,167.0,11.4,'11111222,11111222,11111222' 
TCOON,ioos:station:TCOON:009:1,2008-05-07T18:00:00Z,27.8398,-97.0727,0.0,5.8,170.0,9.7,'11111222,11111222,11111222' 
TCOON,ioos:station:TCOON:009:1,2008-05-07T19:00:00Z,27.8398,-97.0727,0.0,10.1,179.0,14.4,'11111222,11111222,11111222' 
TCOON,ioos:station:TCOON:009:1,2008-05-07T20:00:00Z,27.8398,-97.0727,0.0,7.1,169.0,11.1,'11111222,11111222,11111222' 
TCOON,ioos:station:TCOON:009:1,2008-05-07T21:00:00Z,27.8398,-97.0727,0.0,7.3,166.0,11.1,'11111222,11111222,11111222' 
TCOON,ioos:station:TCOON:009:1,2008-05-07T22:00:00Z,27.8398,-97.0727,0.0,6.5,169.0,11.5,'11111222,11111222,11111222' 
TCOON,ioos:station:TCOON:009:1,2008-05-07T23:00:00Z,27.8398,-97.0727,0.0,6.0,167.0,9.8,'11111222,11111222,11111222' 
TCOON,ioos:station:TCOON:009:1,2008-05-08T00:00:00Z,27.8398,-97.0727,0.0,6.6,170.0,9.7,'11111222,11111222,11111222' 
TCOON,ioos:station:TCOON:009:1,2008-05-08T01:00:00Z,27.8398,-97.0727,0.0,6.0,169.0,9.7,'11111222,11111222,11111222' 
TCOON,ioos:station:TCOON:009:1,2008-05-08T02:00:00Z,27.8398,-97.0727,0.0,5.7,178.0,8.9,'11111222,11111222,11111222' 
TCOON,ioos:station:TCOON:009:1,2008-05-08T03:00:00Z,27.8398,-97.0727,0.0,5.8,181.0,8.9,'11111222,11111222,11111222' 
TCOON,ioos:station:TCOON:009:1,2008-05-08T04:00:00Z,27.8398,-97.0727,0.0,6.5,184.0,9.6,'11111222,11111222,11111222' 
TCOON,ioos:station:TCOON:009:1,2008-05-08T05:00:00Z,27.8398,-97.0727,0.0,6.0,186.0,9.3,'11111222,11111222,11111222' 
TCOON,ioos:station:TCOON:009:1,2008-05-08T06:00:00Z,27.8398,-97.0727,0.0,5.9,190.0,10.2,'11111222,11111222,11111222' 
TCOON,ioos:station:TCOON:009:1,2008-05-08T07:00:00Z,27.8398,-97.0727,0.0,4.5,192.0,7.1,'11111222,11111222,11111222' 
TCOON,ioos:station:TCOON:009:1,2008-05-08T08:00:00Z,27.8398,-97.0727,0.0,4.8,192.0,7.2,'11111222,11111222,11111222' 
TCOON,ioos:station:TCOON:009:1,2008-05-08T09:00:00Z,27.8398,-97.0727,0.0,3.7,199.0,6.1,'11111222,11111222,11111222' 
TCOON,ioos:station:TCOON:009:1,2008-05-08T10:00:00Z,27.8398,-97.0727,0.0,3.5,195.0,5.7,'11111222,11111222,11111222' 
TCOON,ioos:station:TCOON:009:1,2008-05-08T11:00:00Z,27.8398,-97.0727,0.0,3.8,203.0,6.9,'11111222,11111222,11111222' 
TCOON,ioos:station:TCOON:009:1,2008-05-08T12:00:00Z,27.8398,-97.0727,0.0,3.3,210.0,5.8,'11111222,11111222,11111222' 
TCOON,ioos:station:TCOON:009:1,2008-05-08T13:00:00Z,27.8398,-97.0727,0.0,3.5,223.0,5.5,'11111222,11111222,11111222' 
TCOON,ioos:station:TCOON:009:1,2008-05-08T14:00:00Z,27.8398,-97.0727,0.0,4.3,250.0,5.7,'11111222,11111222,11111222' 
TCOON,ioos:station:TCOON:009:1,2008-05-08T15:00:00Z,27.8398,-97.0727,0.0,3.7,271.0,4.3,'11111222,11111222,11111222' 
TCOON,ioos:station:TCOON:009:1,2008-05-08T16:00:00Z,27.8398,-97.0727,0.0,2.5,268.0,2.8,'11111222,11111222,11111222' 
TCOON,ioos:station:TCOON:009:1,2008-05-08T17:00:00Z,27.8398,-97.0727,0.0,1.9,294.0,2.3,'11111222,11111222,11111222' 
TCOON,ioos:station:TCOON:009:1,2008-05-08T18:00:00Z,27.8398,-97.0727,0.0,1.8,126.0,2.9,'11111222,11111222,11111222' 
TCOON,ioos:station:TCOON:009:1,2008-05-08T19:00:00Z,27.8398,-97.0727,0.0,4.4,133.0,5.7,'11111222,11111222,11111222' 
TCOON,ioos:station:TCOON:009:1,2008-05-08T20:00:00Z,27.8398,-97.0727,0.0,4.2,129.0,5.5,'11111222,11111222,11111222' 
TCOON,ioos:station:TCOON:009:1,2008-05-08T21:00:00Z,27.8398,-97.0727,0.0,5.6,123.0,7.1,'11111222,11111222,11111222' 
TCOON,ioos:station:TCOON:009:1,2008-05-08T22:00:00Z,27.8398,-97.0727,0.0,5.6,126.0,7.4,'11111222,11111222,11111222' 
TCOON,ioos:station:TCOON:009:1,2008-05-08T23:00:00Z,27.8398,-97.0727,0.0,5.5,140.0,8.0,'11111222,11111222,11111222' 
TCOON,ioos:station:TCOON:009:1,2008-05-09T00:00:00Z,27.8398,-97.0727,0.0,4.2,145.0,6.8,'11111222,11111222,11111222' 
TCOON,ioos:station:TCOON:009:1,2008-05-09T01:00:00Z,27.8398,-97.0727,0.0,3.4,160.0,5.2,'11111222,11111222,11111222' 
TCOON,ioos:station:TCOON:009:1,2008-05-09T02:00:00Z,27.8398,-97.0727,0.0,3.6,153.0,5.4,'11111222,11111222,11111222' 
TCOON,ioos:station:TCOON:009:1,2008-05-09T03:00:00Z,27.8398,-97.0727,0.0,3.5,160.0,6.0,'11111222,11111222,11111222' 
TCOON,ioos:station:TCOON:009:1,2008-05-09T04:00:00Z,27.8398,-97.0727,0.0,3.6,163.0,5.3,'11111222,11111222,11111222' 
TCOON,ioos:station:TCOON:009:1,2008-05-09T05:00:00Z,27.8398,-97.0727,0.0,4.8,171.0,7.9,'11111222,11111222,11111222' 
TCOON,ioos:station:TCOON:009:1,2008-05-09T06:00:00Z,27.8398,-97.0727,0.0,4.7,175.0,6.9,'11111222,11111222,11111222' 
TCOON,ioos:station:TCOON:009:1,2008-05-09T07:00:00Z,27.8398,-97.0727,0.0,4.5,178.0,6.1,'11111222,11111222,11111222' 
TCOON,ioos:station:TCOON:009:1,2008-05-09T08:00:00Z,27.8398,-97.0727,0.0,3.5,174.0,4.9,'11111222,11111222,11111222' 
TCOON,ioos:station:TCOON:009:1,2008-05-09T09:00:00Z,27.8398,-97.0727,0.0,3.6,163.0,5.7,'11111222,11111222,11111222' 
TCOON,ioos:station:TCOON:009:1,2008-05-09T10:00:00Z,27.8398,-97.0727,0.0,4.3,179.0,5.4,'11111222,11111222,11111222' 
TCOON,ioos:station:TCOON:009:1,2008-05-09T11:00:00Z,27.8398,-97.0727,0.0,2.4,171.0,4.4,'11111222,11111222,11111222' 
TCOON,ioos:station:TCOON:009:1,2008-05-09T12:00:00Z,27.8398,-97.0727,0.0,3.2,174.0,5.5,'11111222,11111222,11111222' 
TCOON,ioos:station:TCOON:009:1,2008-05-09T13:00:00Z,27.8398,-97.0727,0.0,4.6,166.0,6.9,'11111222,11111222,11111222' 
TCOON,ioos:station:TCOON:009:1,2008-05-09T14:00:00Z,27.8398,-97.0727,0.0,4.1,170.0,5.7,'11111222,11111222,11111222' 
TCOON,ioos:station:TCOON:009:1,2008-05-09T15:00:00Z,27.8398,-97.0727,0.0,4.4,162.0,6.9,'11111222,11111222,11111222' 
TCOON,ioos:station:TCOON:009:1,2008-05-09T16:00:00Z,27.8398,-97.0727,0.0,4.1,169.0,6.1,'11111222,11111222,11111222' 